[[{"header":{"parameterUnit":"m.s-1","parameterCategory":1,"la1":30.2991,"la2":30.254,"lo1":-89.0895,"lo2":-89.0444,"dy":0.0017,"dx":0.0017,"nx":28,"ny":28,"refTime":"2026-02-07T09:00:00:Z","depth":0,"parameterNumber":2,"parameterNumberName":"U-component_of_WINDS"},"data":[0,0,0,0,0,0,0,0,0,0,0,0,0,0,0,0,0,0,0,0,0,0,0,0,0,0,0,0,0,0,0,0,0,0,0,0,0,0,0,0,0,0,0,0,0,0,0,0,0,0,0,0,0,0,0,0,0,0,3.5434,3.5435,0,3.5469,3.547,3.547,3.539,3.5387,3.5385,3.5382,3.5421,3.5424,3.5427,0,0,0,0,0,0,0,0,0,0,0,0,0,3.5301,3.5304,3.5434,3.5435,3.5435,3.5469,3.547,3.547,3.539,3.5387,3.5384,3.5381,3.5419,3.5423,3.5428,0,0,0,0,0,0,0,0,0,0,0,0,0,3.535,3.5305,3.5434,3.5399,3.5396,3.5469,3.547,3.547,3.5391,3.5387,3.5383,3.5379,3.5418,3.5423,3.5428,3.5537,0,0,3.5444,3.5446,0,0,0,0,0,0,0,0,3.5347,3.5355,3.5404,3.5402,3.5399,3.5421,3.5437,3.5493,3.5392,3.5393,3.5382,3.5378,3.5424,3.5428,3.5444,3.5539,3.5541,3.5444,3.5447,3.545,3.5451,0,0,0,0,0,0,0,3.5344,3.5353,3.5448,3.5405,3.5402,3.5383,3.5385,3.5447,3.543,3.5393,3.5387,3.5392,3.5422,3.5439,3.5444,3.5541,3.5444,3.5449,3.5452,3.5454,3.5729,3.5733,0,0,0,0,0,0,3.5344,3.535,3.5447,3.5449,3.5363,3.5388,3.5391,3.5418,3.5429,3.5427,3.5395,3.5388,3.5432,3.5438,3.5445,3.5573,3.545,3.5454,3.5457,3.5725,3.573,3.5734,0,0,0,0,0,0,3.5342,3.5354,3.5445,3.5398,3.5408,3.5395,3.5425,3.5421,3.5437,3.5431,3.5428,3.5415,3.5429,3.5438,3.5515,3.5573,3.5457,3.5461,3.572,3.5726,3.5732,3.5831,0,0,0,0,0,0,3.5338,3.5353,3.5394,3.54,3.5411,3.5514,3.5429,3.5424,3.5446,3.5437,3.5449,3.5447,3.5427,3.5508,3.552,3.5578,3.5465,3.5714,3.5722,3.573,3.5822,3.584,3.5855,0,0,0,0,0,3.5334,3.542,3.5396,3.5408,3.5461,3.5517,3.5524,3.5498,3.5451,3.5492,3.5488,3.5447,3.5565,3.5516,3.5529,3.559,3.571,3.572,3.5729,3.5815,3.5836,3.5854,0,0,0,0,0,0,3.5422,3.542,3.5393,3.5484,3.5502,3.5504,3.5554,3.5521,3.5553,3.5543,3.5511,3.5514,3.5598,3.5602,3.5547,3.5697,3.563,3.5643,3.569,3.5711,3.5727,3.5723,3.547,0,0,0,0,0,3.5452,3.5497,3.5493,3.5574,3.5584,3.5568,3.5592,3.557,3.5587,3.5594,3.5596,3.5615,3.5656,3.5684,3.5722,3.5823,3.5825,3.5872,3.5888,3.5901,3.5912,3.5967,3.5987,3.5765,3.5765,3.5765,0,0,3.5514,3.5519,3.5549,3.5592,3.5603,3.5651,3.5575,3.5629,3.5664,3.5602,3.5675,3.5678,3.5696,3.5786,3.5826,3.5792,3.5974,3.5913,3.5924,3.5928,3.5979,3.6,3.6018,3.5772,3.5771,3.577,0,0,3.5651,3.566,3.5728,3.574,3.5758,3.5747,3.5764,3.5772,3.577,3.5843,3.5798,3.5841,3.5913,3.5928,3.5945,3.6091,3.6055,3.6105,3.6189,3.6243,3.626,3.6275,3.6327,3.6346,3.6116,3.6116,3.6117,0,3.5726,3.5796,3.5767,3.5824,3.5845,3.5791,3.5861,3.5875,3.5904,3.592,3.5882,3.5972,3.5981,3.6074,3.611,3.6126,3.6144,3.6102,3.626,3.6275,3.6289,3.6338,3.6357,3.6122,3.6122,3.6121,3.612,0,3.5887,3.5937,3.599,3.6019,3.6046,3.6109,3.6091,3.6122,3.6099,3.6093,3.6168,3.6177,3.6216,3.6237,3.6215,3.6328,3.6306,3.6265,3.6197,3.6316,3.6362,3.638,3.6131,3.6129,3.6127,3.6125,0,0,3.6079,3.6092,3.6112,3.6125,3.6142,3.618,3.6242,3.6279,3.6306,3.6329,3.638,3.6444,3.6406,3.6426,3.6406,3.6453,3.6568,3.6406,3.6406,3.6435,3.6693,3.6722,3.6745,3.6545,3.6548,3.6551,3.6691,0,3.6214,3.6318,3.6295,3.6398,3.6444,3.6395,3.6449,3.6466,3.6463,3.6502,3.6498,3.6543,3.649,3.6502,3.6547,3.6545,3.6619,3.6535,3.6592,3.6595,3.6587,3.6768,3.68,3.6931,3.6708,3.6711,3.6714,0,3.6385,3.6414,3.6521,3.6532,3.655,3.6598,3.6632,3.667,3.6689,3.6683,3.6706,3.6678,3.674,3.6673,3.6759,3.6702,3.6725,3.6728,3.6733,3.6735,3.666,3.6775,3.6972,3.6991,3.6741,3.6739,3.6737,0,3.6512,3.6579,3.6652,3.6665,3.6678,3.6714,3.6722,3.6736,3.6761,3.6791,3.6807,3.6844,3.6865,3.6895,3.6878,3.6831,3.6967,3.6898,3.6964,3.6965,3.6993,3.6991,3.7195,3.7011,3.7011,3.701,3.701,0,3.6664,3.6732,3.6709,3.6754,3.6829,3.6803,3.6878,3.688,3.6895,3.694,3.6902,3.6945,3.692,3.6963,3.695,3.7023,3.7033,3.7031,3.7026,3.7033,3.7034,3.7046,3.7036,3.7015,3.7014,3.7013,3.7012,0,3.6818,3.6806,3.6882,3.689,3.6893,3.6948,3.6955,3.6998,3.6992,3.705,3.7062,3.7054,3.7102,3.7089,3.7141,3.7132,3.7225,3.721,3.7218,3.7214,3.728,3.7274,3.7498,3.7526,3.7325,3.7327,3.7328,0,3.6915,3.6966,3.698,3.7007,3.7017,3.7062,3.7087,3.7065,3.7092,3.7119,3.7159,3.7203,3.7237,3.7316,3.7315,3.7355,3.734,3.7416,3.7346,3.7351,3.734,3.7337,3.7342,3.7429,3.7432,3.7434,3.7435,0,3.7089,3.7081,3.7117,3.7154,3.7184,3.7212,3.7235,3.726,3.724,3.7274,3.7322,3.7348,3.7402,3.7447,3.7484,3.7493,3.7461,3.7458,3.7475,3.7482,3.7484,3.7483,3.7255,3.7452,3.745,3.7449,3.7448,3.7448,3.7216,3.7259,3.7276,3.7319,3.7335,3.7358,3.7399,3.7399,3.7438,3.7479,3.7465,3.752,3.754,3.7586,3.76,3.7644,3.7615,3.764,3.7646,3.7652,3.766,3.7479,3.7651,3.765,3.765,3.7649,3.7649,0,3.7386,3.7395,3.7435,3.747,3.7504,3.7472,3.7497,3.7528,3.7577,3.7598,3.7633,3.7689,3.7733,3.7737,3.7778,3.7813,3.7799,3.7824,3.7821,3.7823,3.7684,3.7664,3.7834,3.7834,3.7834,3.7834,3.7834,3.7834,3.7479,3.755,3.7545,3.7624,3.7632,3.7686,3.7703,3.7725,3.7742,3.7806,3.7842,3.7844,3.7859,3.7901,3.794,3.7941,3.7957,3.7988,3.7982,3.7852,3.7833,3.7815,3.7797,3.7992,3.7992,3.8118,3.8119,3.812]},{"header":{"parameterUnit":"m.s-1","parameterCategory":1,"la1":30.2991,"la2":30.254,"lo1":-89.0895,"lo2":-89.0444,"dy":0.0017,"dx":0.0017,"nx":28,"ny":28,"refTime":"2026-02-07T09:00:00:Z","depth":0,"parameterNumber":3,"parameterNumberName":"V-component_of_WINDS"},"data":[0,0,0,0,0,0,0,0,0,0,0,0,0,0,0,0,0,0,0,0,0,0,0,0,0,0,0,0,0,0,0,0,0,0,0,0,0,0,0,0,0,0,0,0,0,0,0,0,0,0,0,0,0,0,0,0,0,0,1.386,1.386,0,1.3922,1.3923,1.3924,1.3885,1.3883,1.3881,1.388,1.3944,1.3947,1.3951,0,0,0,0,0,0,0,0,0,0,0,0,0,1.3707,1.371,1.3859,1.386,1.3861,1.3922,1.3923,1.3924,1.3885,1.3883,1.3881,1.3879,1.3943,1.3947,1.3951,0,0,0,0,0,0,0,0,0,0,0,0,0,1.3772,1.3711,1.3859,1.3849,1.3849,1.3922,1.3923,1.3924,1.3886,1.3883,1.388,1.3878,1.3941,1.3946,1.3951,1.4038,0,0,1.3967,1.3969,0,0,0,0,0,0,0,0,1.3768,1.3777,1.385,1.385,1.385,1.3893,1.3893,1.3962,1.3887,1.3872,1.388,1.3876,1.3929,1.3935,1.3953,1.4041,1.4044,1.3968,1.3971,1.3973,1.3974,0,0,0,0,0,0,0,1.3763,1.3774,1.3884,1.3851,1.3851,1.3842,1.3848,1.3906,1.3915,1.3873,1.387,1.3878,1.3929,1.3948,1.3954,1.4045,1.3967,1.3972,1.3975,1.3977,1.4207,1.421,0,0,0,0,0,0,1.376,1.3771,1.3882,1.3886,1.3801,1.3847,1.3853,1.3882,1.3914,1.3917,1.388,1.3876,1.3941,1.3948,1.3956,1.406,1.3973,1.3978,1.3981,1.4204,1.4207,1.4211,0,0,0,0,0,0,1.3757,1.377,1.388,1.3828,1.3841,1.3852,1.3884,1.3885,1.3904,1.392,1.3922,1.3899,1.3939,1.3949,1.4018,1.4062,1.398,1.3985,1.42,1.4205,1.4209,1.4268,0,0,0,0,0,0,1.3752,1.3769,1.3802,1.3829,1.3844,1.3941,1.3887,1.3888,1.3913,1.3908,1.3938,1.394,1.3937,1.4011,1.4023,1.4067,1.3989,1.4196,1.4202,1.4208,1.4262,1.4274,1.4284,0,0,0,0,0,1.3747,1.3816,1.3804,1.3818,1.3885,1.3943,1.3952,1.3948,1.3917,1.395,1.396,1.3939,1.4055,1.4018,1.4032,1.4078,1.4194,1.4201,1.4207,1.4258,1.4272,1.4284,0,0,0,0,0,0,1.3795,1.382,1.3806,1.3886,1.3913,1.3937,1.3979,1.3963,1.3999,1.3993,1.3986,1.3993,1.4065,1.4078,1.4037,1.4163,1.4119,1.4129,1.4153,1.4167,1.4177,1.4173,1.3993,0,0,0,0,0,1.3814,1.3859,1.3878,1.3947,1.3961,1.3968,1.3993,1.3987,1.4015,1.4026,1.4041,1.4068,1.4111,1.4139,1.4179,1.4264,1.427,1.4302,1.4313,1.4322,1.4331,1.4377,1.4392,1.4233,1.4233,1.4233,0,0,1.3856,1.3875,1.3904,1.3957,1.3977,1.4024,1.3978,1.4029,1.4064,1.4033,1.41,1.4112,1.4142,1.4219,1.4254,1.4232,1.4376,1.4331,1.4338,1.4342,1.4386,1.4401,1.4414,1.4238,1.4237,1.4236,0,0,1.3955,1.3974,1.4033,1.4054,1.4085,1.4089,1.4103,1.413,1.4137,1.4203,1.4181,1.4222,1.4296,1.4318,1.4339,1.4447,1.4429,1.446,1.4518,1.4563,1.4575,1.4586,1.4625,1.4639,1.4469,1.4469,1.4469,0,1.4003,1.4073,1.4066,1.4119,1.4144,1.4118,1.4179,1.4199,1.4242,1.4259,1.4234,1.4326,1.4344,1.4426,1.4453,1.447,1.4487,1.4457,1.4574,1.4585,1.4595,1.4632,1.4647,1.4472,1.4472,1.4472,1.4471,0,1.413,1.4178,1.4223,1.4265,1.4294,1.435,1.4352,1.4383,1.4374,1.4381,1.4449,1.447,1.4514,1.4533,1.4525,1.4614,1.46,1.4574,1.453,1.4614,1.4649,1.4663,1.4478,1.4476,1.4475,1.4474,0,0,1.4262,1.4299,1.4316,1.4335,1.4367,1.4404,1.4459,1.4502,1.4529,1.4559,1.4605,1.4667,1.4644,1.4668,1.4663,1.4702,1.4787,1.4672,1.4672,1.4693,1.4887,1.4907,1.4923,1.4774,1.4777,1.4779,1.4885,0,1.4364,1.4461,1.4457,1.4547,1.4592,1.4569,1.4617,1.4642,1.4649,1.4688,1.4696,1.4741,1.4706,1.4721,1.4758,1.4769,1.4826,1.4761,1.4818,1.482,1.4813,1.4942,1.4963,1.5061,1.4898,1.4901,1.4902,0,1.4496,1.4531,1.4626,1.4652,1.4671,1.4714,1.4753,1.4791,1.4819,1.4821,1.4848,1.4836,1.4892,1.4845,1.4922,1.4878,1.4901,1.491,1.4913,1.4919,1.4867,1.4952,1.5093,1.5108,1.4924,1.4922,1.492,0,1.4584,1.4655,1.4721,1.4738,1.4769,1.48,1.4814,1.4839,1.4866,1.49,1.4917,1.4957,1.4979,1.501,1.5009,1.4975,1.5088,1.5041,1.5092,1.5092,1.5118,1.5117,1.5265,1.5131,1.5131,1.513,1.513,0,1.47,1.4759,1.4761,1.4802,1.4868,1.4862,1.4927,1.4938,1.4961,1.5003,1.4985,1.5025,1.5021,1.5062,1.5061,1.5126,1.5136,1.5139,1.5139,1.5142,1.5142,1.5158,1.5151,1.5134,1.5133,1.5133,1.5132,0,1.4809,1.4813,1.4884,1.4907,1.4915,1.4962,1.4983,1.5022,1.5027,1.5081,1.5094,1.5102,1.5149,1.5151,1.5205,1.5205,1.5283,1.5274,1.5274,1.5273,1.5325,1.532,1.549,1.5512,1.5362,1.5364,1.5365,0,1.4883,1.4929,1.4957,1.4984,1.5001,1.5045,1.5072,1.5067,1.5096,1.5131,1.5166,1.5211,1.5247,1.5323,1.5334,1.5375,1.5368,1.5424,1.5374,1.5376,1.537,1.5368,1.5373,1.5435,1.5436,1.5438,1.5439,0,1.5014,1.5014,1.5053,1.5093,1.5126,1.5157,1.5186,1.521,1.5209,1.5242,1.529,1.5318,1.5373,1.5418,1.5458,1.5473,1.5456,1.5454,1.5469,1.5473,1.5471,1.5474,1.5303,1.5451,1.545,1.5449,1.5448,1.5448,1.5109,1.5148,1.5175,1.5219,1.5241,1.5268,1.5306,1.5316,1.5356,1.5401,1.5396,1.5449,1.5476,1.5528,1.5546,1.5587,1.5568,1.5588,1.5594,1.5599,1.5605,1.5464,1.5594,1.5594,1.5594,1.5593,1.5593,0,1.524,1.5256,1.5297,1.5338,1.5373,1.5354,1.5385,1.5416,1.5463,1.5489,1.5525,1.558,1.5624,1.5639,1.5681,1.5712,1.5705,1.5723,1.5721,1.5725,1.562,1.5604,1.5728,1.5728,1.5728,1.5728,1.5728,1.5728,1.5312,1.5378,1.5381,1.5457,1.5472,1.5525,1.5544,1.557,1.559,1.5653,1.569,1.5698,1.572,1.5764,1.5803,1.5806,1.5823,1.5845,1.5845,1.5746,1.5733,1.572,1.5705,1.5848,1.5848,1.5947,1.5948,1.5949]}]]